Location: Grand Rapids
(42.9630°N, 85.6680°W)
Time: 03:16:37
(UTC-04:00)

S-56A Canister/Altair - Pass Details

Date: 01 June 2024
Orbit: 637 x 2489 km, 38.9° (Epoch: 22 June)

Event Time Altitude Azimuth Distance (km) Brightness Sun altitude
Rises 01:18:48 0° 172° (S) 5,831 - -24.7°
Reaches altitude 10° 01:26:06 10° 148° (SSE) 5,063 - -24.8°
Exits shadow 01:30:18 13° 131° (SE) 4,911 11.2 -24.9°
Maximum altitude 01:31:16 13° 127° (SE) 4,910 11.3 -24.9°
Drops below altitude 10° 01:36:28 10° 106° (ESE) 5,132 11.5 -24.9°
Sets 01:43:52 0° 83° (E) 5,994 12.2 -24.9°
